User: anonymous   Login
Location: Fort Wayne
(41.1310°N, 85.1290°W)
Time: 01:26:49
(UTC-04:00)
Language:

Oscar 19 - Orbit

View from above orbital plane
View from above orbital plane
View from above satellite
View from above satellite

Ground track
Ground track

The orbit data is extracted from the following two-line orbital elements,

1 20442U 90005G   17175.40647252 -.00000018 +00000-0 +95590-5 0  9990
2 20442 098.5759 111.8474 0012725 123.2170 237.0235 14.32862536432658
Epoch (UTC): 24 June 2017 09:45:19
Eccentricity: 0.0012725
inclination: 98.5759°
perigee height: 773 km
apogee height: 791 km
right ascension of ascending node: 111.8474°
argument of perigee: 123.2170°
revolutions per day: 14.32862536
mean anomaly at epoch: 237.0235°
orbit number at epoch: 43265

The dashed part of the orbit path shows where the satellite is in the earth's shadow,  

DLR